[[{"header":{"parameterUnit":"m.s-1","parameterCategory":1,"la1":30.2991,"la2":30.254,"lo1":-89.0895,"lo2":-89.0444,"dy":0.0017,"dx":0.0017,"nx":28,"ny":28,"refTime":"2024-08-30T21:00:00:Z","depth":0,"parameterNumber":2,"parameterNumberName":"U-component_of_WINDS"},"data":[0,0,0,0,0,0,0,0,0,0,0,0,0,0,0,0,0,0,0,0,0,0,0,0,0,0,0,0,0,0,0,0,0,0,0,0,0,0,0,0,0,0,0,0,0,0,0,0,0,0,0,0,0,0,0,0,0,0,-3.3987,-3.3987,0,-3.4059,-3.406,-3.406,-3.4029,-3.4027,-3.4025,-3.4023,-3.4101,-3.4104,-3.4108,0,0,0,0,0,0,0,0,0,0,0,0,0,-3.3826,-3.3829,-3.3987,-3.3987,-3.3988,-3.4059,-3.406,-3.4061,-3.4029,-3.4027,-3.4025,-3.4022,-3.41,-3.4104,-3.4108,0,0,0,0,0,0,0,0,0,0,0,0,0,-3.3897,-3.383,-3.3986,-3.3981,-3.3981,-3.4058,-3.406,-3.4061,-3.4029,-3.4027,-3.4024,-3.4021,-3.4098,-3.4104,-3.4109,-3.4197,0,0,-3.4126,-3.4129,0,0,0,0,0,0,0,0,-3.3893,-3.3903,-3.3981,-3.3981,-3.3982,-3.4032,-3.4031,-3.4107,-3.403,-3.4011,-3.4023,-3.402,-3.408,-3.4087,-3.4107,-3.4201,-3.4204,-3.4127,-3.413,-3.4132,-3.4134,0,0,0,0,0,0,0,-3.3888,-3.39,-3.4015,-3.3982,-3.3983,-3.3976,-3.3983,-3.4046,-3.406,-3.4013,-3.401,-3.4019,-3.408,-3.4101,-3.4108,-3.4205,-3.4126,-3.4131,-3.4135,-3.4137,-3.4376,-3.4378,0,0,0,0,0,0,-3.3883,-3.3896,-3.4013,-3.4017,-3.393,-3.3981,-3.3989,-3.4019,-3.4059,-3.4063,-3.4021,-3.4017,-3.4093,-3.4102,-3.4111,-3.4216,-3.4132,-3.4138,-3.4141,-3.4373,-3.4376,-3.4379,0,0,0,0,0,0,-3.3879,-3.3893,-3.401,-3.3956,-3.397,-3.3987,-3.402,-3.4021,-3.4042,-3.4066,-3.4069,-3.404,-3.4091,-3.4103,-3.4176,-3.4218,-3.414,-3.4145,-3.4369,-3.4374,-3.4378,-3.4426,0,0,0,0,0,0,-3.3875,-3.3892,-3.3925,-3.3957,-3.3973,-3.4072,-3.4023,-3.4025,-3.4052,-3.4047,-3.4084,-3.4088,-3.409,-3.4167,-3.4181,-3.4224,-3.415,-3.4365,-3.4371,-3.4376,-3.4421,-3.4432,-3.4441,0,0,0,0,0,-3.3869,-3.3936,-3.3926,-3.3941,-3.4014,-3.4075,-3.4084,-3.4084,-3.4055,-3.4088,-3.4104,-3.4086,-3.4212,-3.4175,-3.419,-3.4236,-3.4363,-3.4369,-3.4376,-3.4416,-3.443,-3.4441,0,0,0,0,0,0,-3.3909,-3.394,-3.393,-3.4009,-3.4039,-3.4069,-3.4111,-3.4099,-3.4139,-3.4133,-3.4133,-3.4142,-3.4217,-3.4234,-3.4193,-3.4323,-3.4283,-3.4293,-3.4308,-3.4321,-3.4331,-3.4324,-3.4154,0,0,0,0,0,-3.3928,-3.3973,-3.3998,-3.4066,-3.4081,-3.4094,-3.412,-3.4118,-3.415,-3.4163,-3.4184,-3.4216,-3.4263,-3.4294,-3.4338,-3.4425,-3.4432,-3.4464,-3.4474,-3.4482,-3.449,-3.4536,-3.455,-3.4401,-3.4401,-3.4401,0,0,-3.3965,-3.3988,-3.4016,-3.4074,-3.4097,-3.4146,-3.4105,-3.4157,-3.4193,-3.4172,-3.424,-3.4257,-3.4294,-3.4374,-3.441,-3.439,-3.4533,-3.449,-3.4497,-3.45,-3.4545,-3.4559,-3.4571,-3.4406,-3.4405,-3.4404,0,0,-3.4058,-3.408,-3.4138,-3.4162,-3.4197,-3.4206,-3.422,-3.4252,-3.4262,-3.4331,-3.4316,-3.436,-3.444,-3.4467,-3.4491,-3.4596,-3.4582,-3.4611,-3.4663,-3.4709,-3.472,-3.4731,-3.4767,-3.478,-3.462,-3.462,-3.462,0,-3.41,-3.417,-3.417,-3.4223,-3.4249,-3.4232,-3.4291,-3.4316,-3.4364,-3.4383,-3.4361,-3.4462,-3.4486,-3.4571,-3.4597,-3.4618,-3.4634,-3.4605,-3.4718,-3.4729,-3.4738,-3.4773,-3.4787,-3.4623,-3.4623,-3.4622,-3.4622,0,-3.422,-3.427,-3.4313,-3.4358,-3.439,-3.4447,-3.4456,-3.4488,-3.4485,-3.4496,-3.4567,-3.4595,-3.4645,-3.4666,-3.4663,-3.4751,-3.4738,-3.4718,-3.4676,-3.4756,-3.4788,-3.4801,-3.4627,-3.4626,-3.4625,-3.4625,0,0,-3.4337,-3.4383,-3.4398,-3.4419,-3.4458,-3.4497,-3.4554,-3.4601,-3.4628,-3.4664,-3.4711,-3.4781,-3.4762,-3.479,-3.4791,-3.4831,-3.4911,-3.4805,-3.4806,-3.4822,-3.5009,-3.5022,-3.5037,-3.4903,-3.4906,-3.4908,-3.5005,0,-3.4431,-3.4527,-3.4529,-3.4619,-3.4664,-3.465,-3.4699,-3.4729,-3.4742,-3.4784,-3.4799,-3.4847,-3.482,-3.4836,-3.4876,-3.4893,-3.4948,-3.4886,-3.4947,-3.4949,-3.4935,-3.5055,-3.5069,-3.5159,-3.5018,-3.502,-3.5022,0,-3.4552,-3.4589,-3.4683,-3.4715,-3.4734,-3.4778,-3.4822,-3.4863,-3.4897,-3.4904,-3.4935,-3.4931,-3.499,-3.495,-3.5032,-3.4989,-3.5015,-3.5028,-3.5031,-3.5035,-3.4988,-3.5059,-3.5188,-3.5201,-3.5042,-3.504,-3.5039,0,-3.4625,-3.47,-3.4765,-3.4784,-3.4824,-3.4855,-3.4873,-3.4905,-3.4934,-3.4974,-3.4992,-3.5039,-3.5064,-3.5101,-3.511,-3.5079,-3.5192,-3.5152,-3.5198,-3.5198,-3.522,-3.5218,-3.5353,-3.5241,-3.5241,-3.5241,-3.524,0,-3.4728,-3.4785,-3.4798,-3.4838,-3.4902,-3.4906,-3.497,-3.4987,-3.5016,-3.5059,-3.5052,-3.5093,-3.5103,-3.5147,-3.5155,-3.5221,-3.5234,-3.5241,-3.5241,-3.524,-3.5239,-3.5254,-3.5247,-3.5244,-3.5244,-3.5243,-3.5242,0,-3.4819,-3.4831,-3.49,-3.4933,-3.4942,-3.4988,-3.5016,-3.5055,-3.5068,-3.5124,-3.5137,-3.5158,-3.5209,-3.5222,-3.5285,-3.529,-3.5368,-3.5364,-3.5355,-3.5354,-3.5399,-3.5394,-3.5546,-3.5566,-3.5444,-3.5445,-3.5446,0,-3.4883,-3.4926,-3.4963,-3.4991,-3.501,-3.5056,-3.5085,-3.5091,-3.5122,-3.5166,-3.52,-3.525,-3.5291,-3.5375,-3.5396,-3.5444,-3.544,-3.549,-3.5447,-3.5443,-3.5438,-3.5434,-3.5438,-3.5497,-3.5498,-3.5499,-3.55,0,-3.4993,-3.4997,-3.5038,-3.5081,-3.5115,-3.515,-3.5184,-3.5208,-3.522,-3.5255,-3.5307,-3.5338,-3.5402,-3.5452,-3.5501,-3.5522,-3.5513,-3.5514,-3.5527,-3.5524,-3.5517,-3.552,-3.5375,-3.551,-3.5509,-3.5508,-3.5508,-3.5507,-3.5071,-3.5109,-3.514,-3.5187,-3.5212,-3.5244,-3.5282,-3.5299,-3.5342,-3.5393,-3.5395,-3.5452,-3.5487,-3.5551,-3.5575,-3.562,-3.5605,-3.5624,-3.5629,-3.5633,-3.5636,-3.5512,-3.563,-3.563,-3.5629,-3.5629,-3.5629,0,-3.518,-3.5199,-3.5242,-3.5288,-3.5325,-3.5314,-3.5351,-3.5382,-3.5432,-3.5465,-3.5505,-3.5565,-3.5614,-3.564,-3.569,-3.5721,-3.5718,-3.5734,-3.573,-3.5735,-3.5647,-3.563,-3.5735,-3.5735,-3.5735,-3.5735,-3.5735,-3.5735,-3.524,-3.5303,-3.531,-3.5386,-3.5407,-3.546,-3.5482,-3.5512,-3.5538,-3.5605,-3.5646,-3.5662,-3.5692,-3.5744,-3.5789,-3.5796,-3.5814,-3.583,-3.5835,-3.5752,-3.5741,-3.5731,-3.5714,-3.5835,-3.5835,-3.5918,-3.5919,-3.5919]},{"header":{"parameterUnit":"m.s-1","parameterCategory":1,"la1":30.2991,"la2":30.254,"lo1":-89.0895,"lo2":-89.0444,"dy":0.0017,"dx":0.0017,"nx":28,"ny":28,"refTime":"2024-08-30T21:00:00:Z","depth":0,"parameterNumber":3,"parameterNumberName":"V-component_of_WINDS"},"data":[0,0,0,0,0,0,0,0,0,0,0,0,0,0,0,0,0,0,0,0,0,0,0,0,0,0,0,0,0,0,0,0,0,0,0,0,0,0,0,0,0,0,0,0,0,0,0,0,0,0,0,0,0,0,0,0,0,0,3.6973,3.6973,0,3.6977,3.6977,3.6977,3.6912,3.691,3.6908,3.6906,3.6909,3.6911,3.6913,0,0,0,0,0,0,0,0,0,0,0,0,0,3.691,3.6911,3.6973,3.6973,3.6973,3.6977,3.6977,3.6977,3.6912,3.691,3.6908,3.6906,3.6909,3.6911,3.6913,0,0,0,0,0,0,0,0,0,0,0,0,0,3.6928,3.6912,3.6973,3.6941,3.6939,3.6977,3.6977,3.6977,3.6912,3.691,3.6907,3.6905,3.6908,3.691,3.6913,3.6981,0,0,3.6921,3.6922,0,0,0,0,0,0,0,0,3.6927,3.693,3.6946,3.6944,3.6941,3.6941,3.6955,3.6978,3.6913,3.6922,3.6906,3.6903,3.6922,3.6923,3.6929,3.6982,3.6982,3.6921,3.6923,3.6924,3.6924,0,0,0,0,0,0,0,3.6925,3.6929,3.6974,3.6946,3.6943,3.6927,3.6926,3.6959,3.6937,3.6921,3.6917,3.6918,3.692,3.6927,3.6929,3.6982,3.6921,3.6923,3.6925,3.6926,3.7089,3.7092,0,0,0,0,0,0,3.6929,3.6929,3.6974,3.6975,3.6927,3.693,3.6929,3.6943,3.6936,3.6933,3.692,3.6915,3.6924,3.6926,3.6929,3.7007,3.6924,3.6926,3.6928,3.7086,3.709,3.7093,0,0,0,0,0,0,3.6928,3.6933,3.6974,3.695,3.6954,3.6934,3.695,3.6945,3.6952,3.6935,3.6931,3.6932,3.6922,3.6925,3.6969,3.7007,3.6927,3.693,3.7083,3.7087,3.7091,3.7166,0,0,0,0,0,0,3.6926,3.6933,3.6959,3.6952,3.6956,3.7014,3.6952,3.6947,3.6957,3.695,3.6945,3.6942,3.692,3.6965,3.6971,3.7009,3.6932,3.7079,3.7085,3.709,3.716,3.7172,3.7183,0,0,0,0,0,3.6924,3.698,3.6961,3.6967,3.6988,3.7017,3.7019,3.6993,3.696,3.6986,3.6975,3.6942,3.7002,3.697,3.6976,3.7015,3.7077,3.7083,3.7089,3.7155,3.717,3.7182,0,0,0,0,0,0,3.6993,3.6979,3.6957,3.7013,3.7017,3.7006,3.7037,3.701,3.7023,3.7016,3.6984,3.6983,3.7031,3.7028,3.6993,3.7081,3.7033,3.7041,3.7081,3.7095,3.7106,3.7106,3.6934,0,0,0,0,0,3.7015,3.704,3.7026,3.7076,3.7079,3.7058,3.707,3.705,3.7052,3.7053,3.7045,3.7049,3.7068,3.7082,3.7099,3.716,3.7157,3.7189,3.7201,3.721,3.7217,3.7248,3.7262,3.7113,3.7113,3.7113,0,0,3.706,3.7055,3.7073,3.709,3.709,3.7116,3.706,3.709,3.7108,3.7058,3.7098,3.7092,3.7094,3.7146,3.7169,3.7145,3.7258,3.7218,3.7226,3.7227,3.7256,3.727,3.7283,3.7117,3.7117,3.7116,0,0,3.7155,3.7155,3.7196,3.7198,3.7199,3.7185,3.7195,3.7188,3.7183,3.7222,3.7185,3.7206,3.7241,3.7243,3.7249,3.7345,3.7315,3.7352,3.741,3.7441,3.7453,3.7463,3.7496,3.7509,3.7359,3.7359,3.7359,0,3.7211,3.7248,3.7221,3.7253,3.7261,3.7217,3.7258,3.7261,3.7268,3.7274,3.7248,3.7289,3.7287,3.7339,3.7362,3.7369,3.7379,3.7351,3.7453,3.7463,3.7472,3.7504,3.7517,3.7363,3.7363,3.7362,3.7362,0,3.7316,3.7343,3.7376,3.7384,3.7396,3.7433,3.741,3.7426,3.7405,3.7393,3.7434,3.7431,3.7446,3.7457,3.7437,3.7505,3.749,3.7459,3.7411,3.7491,3.752,3.7532,3.737,3.7368,3.7367,3.7366,0,0,3.7454,3.7446,3.7459,3.7461,3.746,3.748,3.7514,3.7529,3.7543,3.7549,3.7577,3.7607,3.7578,3.7585,3.7565,3.7592,3.7667,3.7557,3.7556,3.7576,3.7741,3.7764,3.7778,3.7647,3.765,3.7651,3.7741,0,3.7546,3.7604,3.758,3.7641,3.7664,3.7623,3.7652,3.7655,3.7645,3.7663,3.7652,3.7674,3.7635,3.7638,3.7663,3.7653,3.7699,3.7646,3.7672,3.7673,3.7672,3.7794,3.7818,3.7902,3.7752,3.7754,3.7755,0,3.766,3.7671,3.7734,3.7727,3.7736,3.7764,3.7775,3.7794,3.7795,3.7786,3.7794,3.7767,3.78,3.7753,3.7798,3.7762,3.7771,3.7768,3.777,3.7771,3.7718,3.7796,3.7929,3.7941,3.7773,3.7772,3.777,0,3.7753,3.7784,3.7825,3.7829,3.7822,3.7843,3.7841,3.784,3.785,3.786,3.7866,3.788,3.7888,3.7899,3.7877,3.7845,3.7924,3.7876,3.7917,3.7918,3.7935,3.7934,3.807,3.7943,3.7943,3.7943,3.7942,0,3.7857,3.7897,3.7866,3.7892,3.7935,3.7907,3.795,3.7944,3.7943,3.7966,3.7932,3.7954,3.7924,3.7944,3.7927,3.7966,3.797,3.7963,3.7957,3.7965,3.7966,3.797,3.7963,3.7946,3.7945,3.7945,3.7944,0,3.7967,3.7949,3.7991,3.7982,3.798,3.8012,3.8004,3.8027,3.8015,3.8045,3.805,3.8031,3.8052,3.8032,3.8052,3.804,3.8092,3.8079,3.8091,3.8087,3.813,3.8125,3.8272,3.8289,3.8153,3.8154,3.8155,0,3.8034,3.8064,3.8058,3.8071,3.8071,3.8093,3.8103,3.8077,3.8089,3.8092,3.8115,3.8133,3.8146,3.8181,3.8169,3.8184,3.817,3.822,3.8172,3.8179,3.8169,3.8168,3.817,3.823,3.8231,3.8233,3.8234,0,3.8154,3.8144,3.816,3.8173,3.8186,3.8196,3.8202,3.8214,3.8187,3.8203,3.8224,3.8234,3.8254,3.8272,3.8283,3.8281,3.8253,3.8249,3.826,3.8267,3.8273,3.8269,3.8117,3.8246,3.8245,3.8244,3.8243,3.8243,3.8244,3.8268,3.8268,3.8287,3.8289,3.8295,3.8316,3.8307,3.8324,3.8338,3.8322,3.8347,3.8347,3.836,3.8361,3.838,3.8359,3.8374,3.8378,3.8382,3.8387,3.8271,3.8382,3.8382,3.8382,3.8381,3.8381,0,3.8362,3.8359,3.8377,3.8387,3.8402,3.8375,3.838,3.8394,3.8417,3.842,3.8434,3.8457,3.8475,3.8464,3.8479,3.8497,3.8484,3.8501,3.8499,3.8499,3.8406,3.8395,3.8511,3.8511,3.8511,3.8511,3.8511,3.8511,3.8424,3.8463,3.8453,3.8492,3.8489,3.8514,3.8519,3.8525,3.8527,3.8555,3.857,3.8563,3.856,3.8574,3.8589,3.8585,3.8592,3.8614,3.8605,3.8518,3.8506,3.8493,3.8483,3.8616,3.8616,3.8696,3.8697,3.8698]}]]